Location: Newark
(34.3481°N, 134.0494°E)
Time: 05:18:37
(UTC+00:00)

Vanguard 1 Rocket - Visible Passes

Search period start: 23 January 2020 00:00
Search period end: 02 February 2020 00:00
Orbit: 650 x 4226 km, 34.3° (Epoch: 22 January)

Date Brightness Start Highest point End Pass type
(mag) Time Alt. Az. Time Alt. Az. Time Alt. Az.
23 Jan 12.1 10:35:50 10° WSW 10:46:41 14° SW 10:57:20 10° SSW visible
24 Jan 12.0 09:15:45 10° W 09:32:58 26° SW 09:51:10 10° S visible
26 Jan 12.2 09:20:53 10° W 09:35:06 19° SW 09:50:17 10° S visible
27 Jan 10.2 21:15:40 10° SE 21:16:36 10° SE 21:17:36 10° ESE visible
28 Jan 12.4 09:28:14 10° WSW 09:37:27 13° SW 09:47:09 10° SSW visible
29 Jan 9.7 21:16:05 10° S 21:19:07 16° SE 21:22:50 10° E visible
31 Jan 9.3 21:18:02 10° SSW 21:21:44 23° SE 21:26:35 10° E visible
